Saint Charles, IL

5:31 AM CST on February 22, 2017 (GMT -0600)
Du Page

Weather History for KDPA - February, 2013

Change the Weather History Date:

Monday, February 4, 2013

  Actual Average Record
Temperature  
Mean Temperature 18 °F 25 °F  
Max Temperature 27 °F 33 °F 59 °F (2008)
Min Temperature 8 °F 17 °F -7 °F (2007)
Degree Days  
Heating Degree Days 47 40  
Month to date heating degree days 207 160  
Since 1 July heating degree days 3814 3875  
Cooling Degree Days 0 0  
Month to date cooling degree days 0 0  
Year to date cooling degree days 0 0  
Moisture  
Dew Point 19 °F    
Average Humidity 84    
Maximum Humidity 93    
Minimum Humidity 77    
Precipitation  
Precipitation 0.04 in 0.03 in 0.25 in (2008)
Month to date precipitation 0.09 0.14  
Year to date precipitation 3.09 1.45  
Sea Level Pressure  
Sea Level Pressure 29.91 in    
Wind  
Wind Speed 8 mph (NE)    
Max Wind Speed 16 mph    
Max Gust Speed 20 mph    
Visibility 6 miles    
Events Snow    
T = Trace of Precipitation, MM = Missing Value Source: NWS Daily Summary

Daily Weather History Graph

Daily Weather History Graph

Search for Another Location

Airport or City:

Trip Planner

Search our weather history database for the weather conditions in past years. The results will help you decide how hot, cold, wet, or windy it might be!

Date:

Astronomy

Feb. 04, 2013 Rise Set
Actual Time 7:02 AM CST 5:12 PM CST
Civil Twilight 6:32 AM CST 5:41 PM CST
Nautical Twilight 5:59 AM CST 6:14 PM CST
Astronomical Twilight 5:27 AM CST 6:47 PM CST
Moon 1:38 AM CST (2/4) 11:34 AM CST (2/4)
Length of Visible Light 11h 08m
Length of Day
10h 10m
Last Quarter, 37% of the Moon is Illuminated
Feb 4
Last Quarter
Feb 10
New
Feb 17
First Quarter
Feb 25
Full
Mar 4
Last Quarter

Hourly Weather History & Observations

Time (CST) Temp. Windchill Dew Point Humidity Pressure Visibility Wind Dir Wind Speed Gust Speed Precip Events Conditions
12:52 AM 21.0 °F - 18.0 °F 88% 30.02 in 1.5 mi Calm Calm - 0.00 in Snow Light Snow
1:28 AM 21.2 °F 16.4 °F 17.6 °F 86% 29.96 in 1.5 mi ESE 3.5 mph - 0.00 in Snow Light Snow
1:52 AM 21.0 °F 14.6 °F 19.0 °F 92% 29.99 in 1.5 mi South 4.6 mph - 0.00 in   Overcast
2:13 AM 21.2 °F 14.9 °F 17.6 °F 86% 29.94 in 1.5 mi ESE 4.6 mph - 0.01 in Snow Light Snow
2:44 AM 21.2 °F 14.9 °F 19.4 °F 93% 29.93 in 1.0 mi ESE 4.6 mph - 0.01 in Snow Light Snow
2:52 AM 21.0 °F 13.4 °F 19.0 °F 92% 29.96 in 1.0 mi ESE 5.8 mph - 0.02 in Snow Light Snow
5:59 AM 21.2 °F 11.7 °F 19.4 °F 93% 29.87 in 1.5 mi East 8.1 mph - 0.00 in Snow Light Snow
6:32 AM 21.2 °F 12.6 °F 19.4 °F 93% 29.87 in 9.0 mi East 6.9 mph - 0.00 in   Overcast
6:52 AM 21.9 °F 14.5 °F 19.9 °F 92% 29.91 in 4.0 mi East 5.8 mph - 0.00 in Snow Light Snow
7:04 AM 23.0 °F 12.4 °F 19.4 °F 86% 29.86 in 2.0 mi East 10.4 mph - 0.00 in Snow Light Snow
7:09 AM 23.0 °F 11.7 °F 19.4 °F 86% 29.86 in 1.8 mi East 11.5 mph 19.6 mph 0.00 in Snow Light Snow
7:21 AM 23.0 °F 13.1 °F 19.4 °F 86% 29.86 in 2.0 mi East 9.2 mph - 0.00 in Snow Light Snow
7:35 AM 23.0 °F 14.7 °F 19.4 °F 86% 29.85 in 5.0 mi East 6.9 mph - 0.00 in Snow Light Snow
7:52 AM 23.0 °F 13.9 °F 19.9 °F 88% 29.89 in 8.0 mi East 8.1 mph - 0.00 in   Overcast
8:52 AM 24.1 °F 15.2 °F 21.0 °F 88% 29.89 in 8.0 mi ENE 8.1 mph - N/A   Overcast
9:52 AM 25.0 °F 16.3 °F 21.9 °F 88% 29.88 in 6.0 mi ENE 8.1 mph - N/A   Overcast
10:19 AM 24.8 °F 15.3 °F 21.2 °F 86% 29.85 in 6.0 mi ENE 9.2 mph - N/A   Overcast
10:52 AM 26.1 °F 17.6 °F 21.9 °F 84% 29.89 in 4.0 mi ENE 8.1 mph - 0.00 in Snow Light Snow
11:37 AM 26.6 °F 17.5 °F 21.2 °F 80% 29.85 in 8.0 mi NE 9.2 mph - N/A   Overcast
11:45 AM 26.6 °F 17.5 °F 23.0 °F 86% 29.85 in 2.5 mi NE 9.2 mph - 0.00 in Snow Light Snow
11:52 AM 27.0 °F 17.3 °F 23.0 °F 85% 29.88 in 2.5 mi NE 10.4 mph - 0.00 in Snow Light Snow
11:59 AM 26.6 °F 20.0 °F 21.2 °F 80% 29.85 in 5.0 mi NE 5.8 mph - 0.00 in   Haze
12:26 PM 26.6 °F 16.2 °F 21.2 °F 80% 29.85 in 5.0 mi North 11.5 mph - 0.00 in   Overcast
12:52 PM 26.1 °F 15.0 °F 21.9 °F 84% 29.88 in 3.0 mi North 12.7 mph - 0.00 in Snow Light Snow
1:52 PM 26.1 °F 14.5 °F 21.0 °F 81% 29.89 in 10.0 mi North 13.8 mph - 0.00 in   Overcast
2:38 PM 26.6 °F 15.2 °F 21.2 °F 80% 29.87 in 10.0 mi North 13.8 mph - N/A   Overcast
2:52 PM 27.0 °F 16.7 °F 21.0 °F 78% 29.90 in 10.0 mi North 11.5 mph - N/A   Overcast
3:23 PM 26.6 °F 16.8 °F 21.2 °F 80% 29.85 in 1.8 mi North 10.4 mph - 0.00 in Snow Light Snow
3:28 PM 26.6 °F 15.2 °F 21.2 °F 80% 29.85 in 10.0 mi North 13.8 mph - 0.00 in Snow Light Snow
3:52 PM 25.0 °F 14.2 °F 21.0 °F 85% 29.89 in 10.0 mi North 11.5 mph - 0.00 in   Overcast
4:52 PM 24.1 °F 13.7 °F 19.0 °F 81% 29.92 in 10.0 mi North 10.4 mph - N/A   Overcast
5:04 PM 24.8 °F 15.3 °F 19.4 °F 80% 29.89 in 10.0 mi North 9.2 mph - N/A   Overcast
5:17 PM 23.0 °F 12.4 °F 17.6 °F 80% 29.90 in 10.0 mi North 10.4 mph - N/A   Overcast
5:52 PM 21.9 °F 11.0 °F 17.1 °F 82% 29.95 in 10.0 mi North 10.4 mph - N/A   Overcast
6:52 PM 21.0 °F 9.3 °F 16.0 °F 81% 29.96 in 10.0 mi North 11.5 mph - N/A   Overcast
7:52 PM 18.0 °F 11.1 °F 14.0 °F 84% 29.97 in 10.0 mi North 4.6 mph - N/A   Mostly Cloudy
8:05 PM 17.6 °F 9.3 °F 12.2 °F 79% 29.94 in 10.0 mi North 5.8 mph - N/A   Scattered Clouds
8:52 PM 18.0 °F 8.7 °F 12.9 °F 81% 29.99 in 10.0 mi NNW 6.9 mph - N/A   Clear
9:52 PM 16.0 °F 6.3 °F 10.9 °F 81% 29.99 in 10.0 mi NNW 6.9 mph - N/A   Clear
10:52 PM 14.0 °F 5.1 °F 8.1 °F 77% 29.99 in 10.0 mi NNW 5.8 mph - N/A   Clear
11:52 PM 9.0 °F 2.4 °F 5.0 °F 84% 29.98 in 10.0 mi North 3.5 mph - N/A   Clear